VKG172 LEPA-ESSA

Flight info

Callsign VKG172
Flight time 3h 24m
Altitude 36000
Route MERO4L MEROS LAPIT CHELY LUMAS MAXIR LUSOL BODRU OKTET IRMAR KINES VANAS MOBLO UBIMA GILIR PENDU UZCUX SOSAD OBOKA EXOBA KOKOR BETUD DISGO MAXUM TEMLI VIBAR Z227 NILUG
Aircraft A321/M-VGDW/C

Departure

Time 2026-05-01 11:30
Airport Palma de Mallorca Airport (LEPA)

Arrival

Time 2026-05-01 14:54
Airport Stockholm-Arlanda Airport (ESSA)
Time Latitude Longitude Altitude Speed Heading
2026-05-01 11:14 39.55147 2.72669 15 ft 0 kts 193°
2026-05-01 11:22 39.55146 2.72669 15 ft 0 kts 193°
2026-05-01 11:22 39.55126 2.72662 15 ft 5 kts 193°
2026-05-01 11:22 39.55086 2.72640 16 ft 8 kts 216°
2026-05-01 11:22 39.55051 2.72574 15 ft 9 kts 274°
2026-05-01 11:23 39.55104 2.72504 13 ft 12 kts 329°
2026-05-01 11:23 39.55135 2.72416 14 ft 11 kts 249°
2026-05-01 11:23 39.55093 2.72317 16 ft 14 kts 239°
2026-05-01 11:23 39.55026 2.72177 18 ft 20 kts 238°
2026-05-01 11:24 39.54955 2.72032 21 ft 17 kts 237°
2026-05-01 11:24 39.54892 2.71895 20 ft 19 kts 239°
2026-05-01 11:24 39.54718 2.71527 17 ft 24 kts 239°
2026-05-01 11:25 39.54633 2.71348 17 ft 18 kts 238°
2026-05-01 11:25 39.54620 2.71169 20 ft 0 kts 320°
2026-05-01 11:26 39.54626 2.71163 20 ft 0 kts 322°
2026-05-01 11:28 39.54637 2.71152 20 ft 7 kts 324°
2026-05-01 11:29 39.54766 2.71183 20 ft 0 kts 57°
2026-05-01 11:29 39.55048 2.71784 21 ft 106 kts 58°
2026-05-01 11:30 39.55548 2.72851 32 ft 164 kts 60°
2026-05-01 11:30 39.56141 2.74120 625 ft 167 kts 59°
2026-05-01 11:30 39.56714 2.75403 1271 ft 168 kts 63°
2026-05-01 11:30 39.57279 2.76782 1736 ft 177 kts 64°
2026-05-01 11:31 39.57859 2.78214 1954 ft 186 kts 64°
2026-05-01 11:31 39.58481 2.79736 2148 ft 196 kts 64°
2026-05-01 11:31 39.59159 2.81379 2246 ft 213 kts 64°
2026-05-01 11:31 39.59877 2.83109 2492 ft 227 kts 63°
2026-05-01 11:32 39.60651 2.84968 2891 ft 241 kts 63°
2026-05-01 11:32 39.61450 2.86880 3499 ft 244 kts 63°
2026-05-01 11:32 39.62266 2.88838 4138 ft 247 kts 63°
2026-05-01 11:32 39.63072 2.90776 4719 ft 251 kts 63°
2026-05-01 11:33 39.63909 2.92818 5166 ft 261 kts 63°
2026-05-01 11:33 39.64768 2.94921 5756 ft 265 kts 63°
2026-05-01 11:33 39.65620 2.97009 6387 ft 267 kts 63°
2026-05-01 11:33 39.66495 2.99155 6990 ft 270 kts 63°
2026-05-01 11:34 39.67377 3.01316 7606 ft 273 kts 62°
2026-05-01 11:34 39.68269 3.03503 8180 ft 277 kts 62°
2026-05-01 11:34 39.69171 3.05717 8745 ft 281 kts 62°
2026-05-01 11:34 39.70082 3.07952 9300 ft 284 kts 62°
2026-05-01 11:35 39.70998 3.10202 9837 ft 287 kts 62°
2026-05-01 11:35 39.71936 3.12513 10362 ft 290 kts 62°
2026-05-01 11:35 39.72891 3.14863 10683 ft 302 kts 61°
2026-05-01 11:35 39.73889 3.17317 10936 ft 315 kts 61°
2026-05-01 11:36 39.74927 3.19871 11180 ft 328 kts 61°
2026-05-01 11:36 39.76009 3.22540 11417 ft 341 kts 61°
2026-05-01 11:36 39.77217 3.25264 11738 ft 349 kts 56°
2026-05-01 11:36 39.78624 3.27859 12232 ft 352 kts 51°
2026-05-01 11:37 39.80170 3.30278 12729 ft 354 kts 48°
2026-05-01 11:37 39.81787 3.32700 13230 ft 356 kts 47°
2026-05-01 11:37 39.83414 3.35124 13703 ft 359 kts 47°
2026-05-01 11:37 39.85066 3.37590 14194 ft 361 kts 47°
2026-05-01 11:38 39.86705 3.40042 14668 ft 363 kts 47°
2026-05-01 11:38 39.88369 3.42536 15121 ft 366 kts 48°
2026-05-01 11:38 39.90035 3.45040 15564 ft 368 kts 48°
2026-05-01 11:38 39.91711 3.47561 16000 ft 371 kts 48°
2026-05-01 11:39 39.93396 3.50101 16451 ft 373 kts 48°
2026-05-01 11:39 39.95087 3.52650 16868 ft 375 kts 48°
2026-05-01 11:39 39.96795 3.55228 17296 ft 377 kts 48°
2026-05-01 11:39 39.98528 3.57848 17718 ft 379 kts 48°
2026-05-01 11:40 40.00238 3.60435 18136 ft 381 kts 48°
2026-05-01 11:40 40.01966 3.63052 18518 ft 383 kts 48°
2026-05-01 11:40 40.03720 3.65710 18888 ft 386 kts 49°
2026-05-01 11:40 40.05456 3.68343 19257 ft 388 kts 49°
2026-05-01 11:41 40.07212 3.71010 19646 ft 390 kts 49°
2026-05-01 11:41 40.08982 3.73697 20022 ft 393 kts 49°
2026-05-01 11:41 40.10779 3.76430 20385 ft 395 kts 49°
2026-05-01 11:41 40.12556 3.79134 20747 ft 396 kts 49°
2026-05-01 11:42 40.14357 3.81877 21118 ft 398 kts 49°
2026-05-01 11:42 40.16149 3.84610 21461 ft 400 kts 49°
2026-05-01 11:42 40.17964 3.87378 21820 ft 402 kts 49°
2026-05-01 11:42 40.19787 3.90161 22164 ft 404 kts 49°
2026-05-01 11:43 40.21601 3.92935 22496 ft 406 kts 49°
2026-05-01 11:43 40.23461 3.95780 22818 ft 408 kts 49°
2026-05-01 11:43 40.25304 3.98603 23136 ft 411 kts 49°
2026-05-01 11:44 40.29023 4.04308 23748 ft 415 kts 49°
2026-05-01 11:44 40.30885 4.07167 24040 ft 418 kts 49°
2026-05-01 11:44 40.32784 4.10086 24331 ft 420 kts 48°
2026-05-01 11:44 40.34663 4.12977 24610 ft 423 kts 48°
2026-05-01 11:45 40.36562 4.15900 24884 ft 425 kts 48°
2026-05-01 11:45 40.38477 4.18851 25150 ft 427 kts 48°
2026-05-01 11:45 40.40407 4.21827 25414 ft 430 kts 48°
2026-05-01 11:45 40.42357 4.24839 25683 ft 432 kts 48°
2026-05-01 11:46 40.44287 4.27825 25918 ft 435 kts 48°
2026-05-01 11:46 40.46258 4.30875 26051 ft 440 kts 48°
2026-05-01 11:46 40.48296 4.33830 26228 ft 442 kts 41°
2026-05-01 11:46 40.50818 4.36178 26449 ft 440 kts 26°
2026-05-01 11:47 40.53620 4.37613 26701 ft 438 kts 12°
2026-05-01 11:47 40.56608 4.38405 26964 ft 439 kts
2026-05-01 11:47 40.59636 4.39095 27177 ft 441 kts
2026-05-01 11:47 40.62636 4.39770 27392 ft 443 kts
2026-05-01 11:48 40.65706 4.40473 27618 ft 445 kts
2026-05-01 11:48 40.68754 4.41186 27842 ft 446 kts
2026-05-01 11:48 40.71810 4.41911 28045 ft 448 kts
2026-05-01 11:48 40.74869 4.42640 28257 ft 450 kts
2026-05-01 11:49 40.77934 4.43374 28474 ft 451 kts
2026-05-01 11:49 40.81023 4.44116 28687 ft 453 kts
2026-05-01 11:49 40.84128 4.44863 28891 ft 454 kts
2026-05-01 11:49 40.87265 4.45619 29090 ft 455 kts
2026-05-01 11:50 40.90365 4.46366 29284 ft 457 kts
2026-05-01 11:50 40.93466 4.47117 29547 ft 456 kts
2026-05-01 11:50 40.96579 4.47872 29833 ft 455 kts
2026-05-01 11:50 40.99703 4.48631 30112 ft 454 kts
2026-05-01 11:51 41.02792 4.49380 30372 ft 454 kts
2026-05-01 11:51 41.05905 4.50136 30632 ft 454 kts
2026-05-01 11:51 41.08988 4.50886 30912 ft 453 kts
2026-05-01 11:51 41.12091 4.51643 31181 ft 452 kts
2026-05-01 11:52 41.15210 4.52404 31424 ft 452 kts
2026-05-01 11:52 41.18270 4.53151 31661 ft 452 kts
2026-05-01 11:52 41.21382 4.53912 31898 ft 452 kts
2026-05-01 11:52 41.24470 4.54666 32122 ft 452 kts
2026-05-01 11:53 41.27528 4.55414 32351 ft 452 kts
2026-05-01 11:53 41.30637 4.56175 32594 ft 451 kts
2026-05-01 11:53 41.33718 4.56931 32829 ft 450 kts
2026-05-01 11:53 41.36771 4.57679 33056 ft 450 kts
2026-05-01 11:54 41.39863 4.58436 33261 ft 450 kts
2026-05-01 11:54 41.42930 4.59189 33454 ft 450 kts
2026-05-01 11:54 41.45988 4.59940 33648 ft 450 kts
2026-05-01 11:54 41.49070 4.60699 33855 ft 449 kts
2026-05-01 11:55 41.52113 4.61447 34033 ft 449 kts
2026-05-01 11:55 41.55223 4.62213 34213 ft 449 kts
2026-05-01 11:55 41.58258 4.62961 34382 ft 449 kts
2026-05-01 11:55 41.61318 4.63801 34527 ft 451 kts 12°
2026-05-01 11:56 41.64274 4.65225 34657 ft 455 kts 21°
2026-05-01 11:56 41.67164 4.67034 34834 ft 454 kts 23°
2026-05-01 11:56 41.69992 4.68884 34976 ft 454 kts 24°
2026-05-01 11:56 41.72823 4.70743 35117 ft 454 kts 24°
2026-05-01 11:57 41.75644 4.72586 35268 ft 453 kts 23°
2026-05-01 11:57 41.78459 4.74414 35403 ft 453 kts 23°
2026-05-01 11:57 41.81277 4.76236 35516 ft 453 kts 23°
2026-05-01 11:57 41.84105 4.78062 35606 ft 453 kts 23°
2026-05-01 11:58 41.89814 4.81744 35803 ft 453 kts 23°
2026-05-01 11:58 41.95449 4.85383 35991 ft 454 kts 23°
2026-05-01 11:59 41.98306 4.87229 36260 ft 454 kts 23°
2026-05-01 11:59 42.03994 4.90908 36247 ft 454 kts 23°
2026-05-01 12:00 42.12492 4.96422 36232 ft 454 kts 23°
2026-05-01 12:01 42.20974 5.01943 36240 ft 451 kts 23°
2026-05-01 12:01 42.26609 5.05621 36236 ft 450 kts 23°
2026-05-01 12:02 42.32257 5.09312 36246 ft 450 kts 23°
2026-05-01 12:02 42.37885 5.12999 36245 ft 449 kts 23°
2026-05-01 12:03 42.43463 5.16660 36247 ft 450 kts 23°
2026-05-01 12:03 42.49087 5.20359 36252 ft 450 kts 23°
2026-05-01 12:04 42.54728 5.24074 36259 ft 450 kts 23°
2026-05-01 12:04 42.60306 5.27756 36264 ft 449 kts 23°
2026-05-01 12:05 42.65914 5.31468 36264 ft 449 kts 23°
2026-05-01 12:05 42.74317 5.37042 36264 ft 448 kts 23°
2026-05-01 12:06 42.79876 5.40737 36264 ft 447 kts 23°
2026-05-01 12:06 42.85466 5.44461 36266 ft 447 kts 23°
2026-05-01 12:07 42.91042 5.48184 36265 ft 446 kts 23°
2026-05-01 12:07 42.96579 5.51887 36252 ft 444 kts 23°
2026-05-01 12:08 43.02123 5.55605 36249 ft 444 kts 23°
2026-05-01 12:08 43.07654 5.59320 36250 ft 444 kts 23°
2026-05-01 12:09 43.13172 5.63036 36256 ft 443 kts 23°
2026-05-01 12:09 43.18692 5.66758 36265 ft 443 kts 24°
2026-05-01 12:10 43.26949 5.72340 36267 ft 443 kts 24°
2026-05-01 12:11 43.35203 5.77937 36273 ft 442 kts 24°
2026-05-01 12:11 43.40736 5.81698 36272 ft 443 kts 24°
2026-05-01 12:12 43.46217 5.85434 36271 ft 442 kts 24°
2026-05-01 12:12 43.51718 5.89190 36271 ft 441 kts 24°
2026-05-01 12:13 43.57199 5.92939 36271 ft 441 kts 24°
2026-05-01 12:13 43.62665 5.96685 36270 ft 441 kts 24°
2026-05-01 12:14 43.68136 6.00441 36271 ft 441 kts 24°
2026-05-01 12:14 43.73644 6.04233 36272 ft 441 kts 24°
2026-05-01 12:15 43.79099 6.07996 36271 ft 440 kts 24°
2026-05-01 12:15 43.84549 6.11763 36273 ft 439 kts 24°
2026-05-01 12:16 43.89996 6.15536 36277 ft 439 kts 24°
2026-05-01 12:16 43.95440 6.19312 36279 ft 439 kts 24°
2026-05-01 12:17 44.00912 6.23117 36281 ft 439 kts 24°
2026-05-01 12:17 44.06338 6.26899 36282 ft 440 kts 23°
2026-05-01 12:18 44.11800 6.30711 36286 ft 439 kts 24°
2026-05-01 12:18 44.14507 6.32605 36141 ft 437 kts 24°
2026-05-01 12:18 44.17236 6.34514 36228 ft 438 kts 24°
2026-05-01 12:19 44.19957 6.36421 36511 ft 440 kts 24°
2026-05-01 12:19 44.22673 6.38326 36365 ft 438 kts 24°
2026-05-01 12:19 44.28102 6.42141 36310 ft 438 kts 24°
2026-05-01 12:20 44.33507 6.45948 36303 ft 438 kts 24°
2026-05-01 12:20 44.38953 6.49790 36300 ft 438 kts 24°
2026-05-01 12:21 44.41664 6.51707 36073 ft 437 kts 24°
2026-05-01 12:21 44.44338 6.53598 36201 ft 436 kts 24°
2026-05-01 12:21 44.49786 6.57456 36273 ft 439 kts 24°
2026-05-01 12:22 44.55196 6.61296 36452 ft 440 kts 24°
2026-05-01 12:22 44.57923 6.63237 36347 ft 438 kts 24°
2026-05-01 12:22 44.60652 6.65178 36316 ft 438 kts 25°
2026-05-01 12:23 44.66074 6.69045 36303 ft 438 kts 25°
2026-05-01 12:23 44.71456 6.72891 36318 ft 437 kts 25°
2026-05-01 12:24 44.77040 6.76151 36329 ft 435 kts 15°
2026-05-01 12:24 44.79977 6.77283 36086 ft 434 kts 11°
2026-05-01 12:24 44.82928 6.78049 36218 ft 432 kts
2026-05-01 12:25 44.85918 6.78470 36465 ft 433 kts
2026-05-01 12:25 44.91895 6.78364 36323 ft 432 kts 356°
2026-05-01 12:26 44.97882 6.77941 36314 ft 432 kts 356°
2026-05-01 12:26 45.06864 6.77323 36316 ft 433 kts 356°
2026-05-01 12:27 45.15889 6.76716 36314 ft 434 kts 356°
2026-05-01 12:28 45.24923 6.76108 36313 ft 435 kts 356°
2026-05-01 12:29 45.34013 6.75496 36316 ft 436 kts 356°
2026-05-01 12:29 45.43099 6.74888 36333 ft 437 kts 356°
2026-05-01 12:30 45.52183 6.74276 36333 ft 439 kts 356°
2026-05-01 12:31 45.58275 6.73861 36328 ft 438 kts 356°
2026-05-01 12:31 45.64385 6.73439 36323 ft 439 kts 356°
2026-05-01 12:32 45.70449 6.73022 36320 ft 439 kts 356°
2026-05-01 12:32 45.79607 6.72386 36320 ft 440 kts 356°
2026-05-01 12:33 45.85699 6.71973 36319 ft 440 kts 356°
2026-05-01 12:33 45.91862 6.71557 36317 ft 442 kts 356°
2026-05-01 12:34 45.97963 6.71141 36318 ft 442 kts 356°
2026-05-01 12:34 46.04118 6.70721 36318 ft 441 kts 356°
2026-05-01 12:35 46.10222 6.69969 36323 ft 441 kts 351°
2026-05-01 12:35 46.16215 6.68248 36317 ft 440 kts 344°
2026-05-01 12:36 46.22051 6.65638 36317 ft 441 kts 340°
2026-05-01 12:36 46.27853 6.62793 36309 ft 442 kts 340°
2026-05-01 12:37 46.33658 6.59947 36299 ft 443 kts 340°
2026-05-01 12:37 46.39491 6.57092 36283 ft 444 kts 340°
2026-05-01 12:38 46.45319 6.54235 36269 ft 444 kts 340°
2026-05-01 12:38 46.51198 6.51349 36247 ft 446 kts 340°
2026-05-01 12:39 46.57046 6.48471 36243 ft 447 kts 340°
2026-05-01 12:39 46.62897 6.45585 36249 ft 447 kts 341°
2026-05-01 12:40 46.68820 6.42658 36254 ft 448 kts 340°
2026-05-01 12:40 46.74685 6.39752 36256 ft 449 kts 341°
2026-05-01 12:41 46.80573 6.36826 36257 ft 449 kts 341°
2026-05-01 12:41 46.86475 6.33887 36254 ft 450 kts 340°
2026-05-01 12:42 46.92412 6.30923 36256 ft 450 kts 340°
2026-05-01 12:42 46.98282 6.27985 36250 ft 450 kts 340°
2026-05-01 12:43 47.04213 6.24992 36247 ft 451 kts 339°
2026-05-01 12:43 47.09927 6.21410 36243 ft 451 kts 333°
2026-05-01 12:44 47.12772 6.19369 35977 ft 451 kts 333°
2026-05-01 12:44 47.15561 6.17338 36111 ft 450 kts 333°
2026-05-01 12:45 47.26829 6.09166 36215 ft 454 kts 335°
2026-05-01 12:45 47.32778 6.06396 36213 ft 455 kts 349°
2026-05-01 12:46 47.39091 6.05940 36209 ft 455 kts
2026-05-01 12:46 47.45246 6.07796 36212 ft 455 kts 17°
2026-05-01 12:47 47.51292 6.10565 36210 ft 453 kts 18°
2026-05-01 12:47 47.57294 6.13337 36205 ft 453 kts 18°
2026-05-01 12:48 47.63308 6.16087 36207 ft 453 kts 18°
2026-05-01 12:48 47.69291 6.18815 36214 ft 453 kts 18°
2026-05-01 12:49 47.75318 6.21563 36218 ft 452 kts 18°
2026-05-01 12:49 47.81280 6.24287 36223 ft 452 kts 18°
2026-05-01 12:50 47.87279 6.27037 36225 ft 451 kts 18°
2026-05-01 12:50 47.93276 6.29790 36222 ft 451 kts 18°
2026-05-01 12:51 47.99212 6.32522 36221 ft 450 kts 18°
2026-05-01 12:52 48.08153 6.36648 36220 ft 448 kts 18°
2026-05-01 12:52 48.17097 6.40793 36220 ft 449 kts 18°
2026-05-01 12:53 48.26018 6.44942 36225 ft 448 kts 18°
2026-05-01 12:54 48.31943 6.47705 36233 ft 447 kts 18°
2026-05-01 12:54 48.40828 6.51860 36231 ft 447 kts 18°
2026-05-01 12:55 48.49693 6.56023 36235 ft 446 kts 18°
2026-05-01 12:56 48.55603 6.58805 36234 ft 446 kts 18°
2026-05-01 12:56 48.61479 6.61581 36080 ft 444 kts 18°
2026-05-01 12:56 48.64436 6.62978 36285 ft 443 kts 18°
2026-05-01 12:57 48.67372 6.64369 36257 ft 443 kts 18°
2026-05-01 12:57 48.76175 6.68548 36242 ft 442 kts 18°
2026-05-01 12:58 48.82024 6.71333 36242 ft 443 kts 18°
2026-05-01 12:59 48.90787 6.75517 36241 ft 443 kts 18°
2026-05-01 12:59 48.99576 6.79730 36240 ft 442 kts 18°
2026-05-01 13:00 49.08340 6.83947 36244 ft 441 kts 18°
2026-05-01 13:01 49.17117 6.88182 36248 ft 442 kts 18°
2026-05-01 13:02 49.25874 6.92432 36255 ft 442 kts 18°
2026-05-01 13:07 49.92098 7.11043 36283 ft 440 kts
2026-05-01 13:08 49.98092 7.12674 36284 ft 441 kts
2026-05-01 13:08 50.04110 7.14318 36286 ft 441 kts
2026-05-01 13:09 50.10151 7.15970 36288 ft 441 kts
2026-05-01 13:09 50.16169 7.17618 36290 ft 441 kts
2026-05-01 13:10 50.22188 7.19271 36291 ft 440 kts
2026-05-01 13:10 50.28177 7.20920 36287 ft 440 kts
2026-05-01 13:11 50.34194 7.22583 36280 ft 440 kts
2026-05-01 13:11 50.40218 7.24253 36273 ft 440 kts
2026-05-01 13:12 50.46198 7.25913 36269 ft 440 kts
2026-05-01 13:12 50.52210 7.27584 36269 ft 440 kts
2026-05-01 13:13 50.58202 7.29255 36270 ft 440 kts
2026-05-01 13:13 50.64209 7.30936 36271 ft 439 kts
2026-05-01 13:14 50.70161 7.33016 36270 ft 439 kts 15°
2026-05-01 13:14 50.75913 7.36161 36272 ft 439 kts 22°
2026-05-01 13:15 50.81382 7.40351 36275 ft 439 kts 28°
2026-05-01 13:15 50.86641 7.45267 36277 ft 439 kts 30°
2026-05-01 13:16 50.91854 7.50243 36277 ft 439 kts 30°
2026-05-01 13:16 50.97085 7.55235 36282 ft 438 kts 30°
2026-05-01 13:17 51.07496 7.65187 36290 ft 438 kts 31°
2026-05-01 13:18 51.15293 7.72668 36297 ft 438 kts 31°
2026-05-01 13:18 51.20471 7.77654 36297 ft 438 kts 31°
2026-05-01 13:19 51.25677 7.82681 36302 ft 437 kts 31°
2026-05-01 13:20 51.33442 7.90203 36303 ft 436 kts 31°
2026-05-01 13:20 51.38615 7.95229 36305 ft 436 kts 31°
2026-05-01 13:21 51.46344 8.02766 36307 ft 436 kts 31°
2026-05-01 13:21 51.51521 8.07830 36308 ft 436 kts 31°
2026-05-01 13:22 51.56665 8.12879 36308 ft 436 kts 31°
2026-05-01 13:22 51.61831 8.17961 36308 ft 436 kts 31°
2026-05-01 13:23 51.66993 8.23051 36307 ft 436 kts 31°
2026-05-01 13:23 51.72137 8.28138 36302 ft 436 kts 31°
2026-05-01 13:24 51.77222 8.33291 36302 ft 436 kts 33°
2026-05-01 13:25 51.84635 8.41803 36302 ft 436 kts 35°
2026-05-01 13:25 51.89542 8.47510 36307 ft 436 kts 35°
2026-05-01 13:26 51.94440 8.53213 36309 ft 436 kts 35°
2026-05-01 13:26 51.99358 8.58948 36313 ft 436 kts 35°
2026-05-01 13:27 52.04230 8.64646 36317 ft 436 kts 35°
2026-05-01 13:27 52.11606 8.73302 36312 ft 436 kts 36°
2026-05-01 13:28 52.18953 8.81958 36320 ft 436 kts 36°
2026-05-01 13:29 52.28736 8.93539 36325 ft 437 kts 36°
2026-05-01 13:31 52.43391 9.11011 36333 ft 436 kts 36°
2026-05-01 13:32 52.55614 9.25697 36330 ft 437 kts 36°
2026-05-01 13:33 52.67800 9.40441 36330 ft 438 kts 36°
2026-05-01 13:34 52.77576 9.52345 36326 ft 438 kts 36°
2026-05-01 13:35 52.84890 9.61296 36324 ft 438 kts 36°
2026-05-01 13:36 52.92219 9.70304 36320 ft 438 kts 37°
2026-05-01 13:36 52.99520 9.79318 36162 ft 437 kts 37°
2026-05-01 13:37 53.04379 9.85334 36547 ft 440 kts 37°
2026-05-01 13:37 53.06816 9.88359 36406 ft 438 kts 37°
2026-05-01 13:37 53.09254 9.91389 36135 ft 438 kts 37°
2026-05-01 13:38 53.14124 9.97461 36296 ft 440 kts 37°
2026-05-01 13:38 53.16558 10.00502 36320 ft 441 kts 37°
2026-05-01 13:39 53.21433 10.06602 36336 ft 441 kts 37°
2026-05-01 13:39 53.26317 10.12732 36339 ft 440 kts 37°
2026-05-01 13:40 53.31195 10.18871 36340 ft 440 kts 37°
2026-05-01 13:40 53.36056 10.25008 36339 ft 440 kts 37°
2026-05-01 13:41 53.40945 10.31197 36342 ft 440 kts 37°
2026-05-01 13:41 53.45816 10.37385 36339 ft 441 kts 37°
2026-05-01 13:42 53.50661 10.43555 36342 ft 440 kts 37°
2026-05-01 13:42 53.55526 10.49771 36345 ft 441 kts 37°
2026-05-01 13:43 53.60397 10.56011 36351 ft 441 kts 37°
2026-05-01 13:43 53.65230 10.62221 36357 ft 440 kts 37°
2026-05-01 13:44 53.70100 10.68499 36356 ft 440 kts 38°
2026-05-01 13:44 53.74937 10.74752 36359 ft 440 kts 38°
2026-05-01 13:45 53.79755 10.80998 36361 ft 440 kts 38°
2026-05-01 13:45 53.84594 10.87291 36364 ft 440 kts 38°
2026-05-01 13:46 53.89438 10.93609 36362 ft 440 kts 38°
2026-05-01 13:46 53.94271 10.99933 36360 ft 441 kts 38°
2026-05-01 13:47 53.99102 11.06270 36361 ft 441 kts 38°
2026-05-01 13:47 54.03927 11.12621 36363 ft 440 kts 38°
2026-05-01 13:48 54.08733 11.18966 36357 ft 440 kts 38°
2026-05-01 13:48 54.13576 11.25380 36356 ft 440 kts 38°
2026-05-01 13:49 54.18376 11.31753 36358 ft 440 kts 38°
2026-05-01 13:49 54.23184 11.38158 36350 ft 440 kts 38°
2026-05-01 13:50 54.27969 11.44552 36340 ft 440 kts 38°
2026-05-01 13:50 54.32774 11.50991 36337 ft 439 kts 38°
2026-05-01 13:51 54.37569 11.57437 36344 ft 439 kts 38°
2026-05-01 13:51 54.42341 11.63873 36344 ft 438 kts 38°
2026-05-01 13:52 54.47068 11.70393 36339 ft 438 kts 41°
2026-05-01 13:52 54.51658 11.77250 36338 ft 438 kts 41°
2026-05-01 13:53 54.56209 11.84121 36341 ft 438 kts 41°
2026-05-01 13:53 54.63059 11.94481 36341 ft 438 kts 41°
2026-05-01 13:54 54.67621 12.01401 36345 ft 437 kts 41°
2026-05-01 13:54 54.72166 12.08316 36352 ft 437 kts 41°
2026-05-01 13:55 54.76697 12.15226 36353 ft 437 kts 41°
2026-05-01 13:55 54.81216 12.22141 36356 ft 437 kts 41°
2026-05-01 13:56 54.85754 12.29109 36355 ft 437 kts 41°
2026-05-01 13:56 54.90279 12.36080 36355 ft 437 kts 41°
2026-05-01 13:57 54.94058 12.41914 36355 ft 437 kts 41°
2026-05-01 13:57 54.99359 12.50129 36353 ft 438 kts 41°
2026-05-01 13:58 55.03915 12.56986 36353 ft 437 kts 39°
2026-05-01 13:58 55.08588 12.63743 36351 ft 437 kts 39°
2026-05-01 13:59 55.13224 12.70514 36352 ft 437 kts 40°
2026-05-01 13:59 55.17743 12.77649 36350 ft 437 kts 43°
2026-05-01 14:00 55.22100 12.84987 36348 ft 437 kts 43°
2026-05-01 14:00 55.26469 12.92375 36345 ft 438 kts 43°
2026-05-01 14:01 55.30828 12.99758 36338 ft 438 kts 43°
2026-05-01 14:01 55.35192 13.07169 36339 ft 438 kts 43°
2026-05-01 14:02 55.39516 13.14533 36339 ft 437 kts 43°
2026-05-01 14:02 55.43864 13.21960 36345 ft 437 kts 43°
2026-05-01 14:03 55.48214 13.29416 36342 ft 438 kts 43°
2026-05-01 14:03 55.52553 13.36876 36344 ft 438 kts 43°
2026-05-01 14:04 55.56907 13.44386 36338 ft 438 kts 43°
2026-05-01 14:04 55.60498 13.50597 36334 ft 438 kts 43°
2026-05-01 14:05 55.65559 13.59386 36332 ft 438 kts 43°
2026-05-01 14:05 55.69923 13.66822 36328 ft 437 kts 43°
2026-05-01 14:06 55.74295 13.74193 36318 ft 438 kts 43°
2026-05-01 14:06 55.78687 13.81631 36317 ft 437 kts 43°
2026-05-01 14:07 55.83076 13.89097 36308 ft 438 kts 43°
2026-05-01 14:08 55.89639 14.00311 36308 ft 439 kts 43°
2026-05-01 14:08 55.94027 14.07842 36305 ft 439 kts 43°
2026-05-01 14:09 55.98389 14.15354 36299 ft 439 kts 43°
2026-05-01 14:09 56.02745 14.22881 36298 ft 438 kts 43°
2026-05-01 14:10 56.07091 14.30415 36292 ft 437 kts 43°
2026-05-01 14:10 56.11454 14.38002 36286 ft 438 kts 43°
2026-05-01 14:11 56.15807 14.45597 36284 ft 439 kts 43°
2026-05-01 14:11 56.22338 14.57040 36278 ft 439 kts 43°
2026-05-01 14:12 56.26666 14.64658 36274 ft 439 kts 42°
2026-05-01 14:12 56.31022 14.72351 36271 ft 438 kts 43°
2026-05-01 14:13 56.34612 14.78707 36270 ft 438 kts 43°
2026-05-01 14:13 56.39658 14.87671 36266 ft 437 kts 43°
2026-05-01 14:14 56.43968 14.95357 36262 ft 438 kts 43°
2026-05-01 14:14 56.48268 15.03052 36261 ft 438 kts 43°
2026-05-01 14:15 56.52569 15.10775 36260 ft 438 kts 43°
2026-05-01 14:15 56.56873 15.18527 36255 ft 438 kts 43°
2026-05-01 14:16 56.61169 15.26295 36252 ft 438 kts 43°
2026-05-01 14:16 56.65539 15.33961 36245 ft 436 kts 39°
2026-05-01 14:17 56.70242 15.40747 36245 ft 434 kts 33°
2026-05-01 14:17 56.75310 15.46636 36246 ft 433 kts 28°
2026-05-01 14:18 56.80450 15.52236 36242 ft 433 kts 28°
2026-05-01 14:18 56.84745 15.56928 36241 ft 433 kts 28°
2026-05-01 14:19 56.90739 15.63514 36224 ft 433 kts 28°
2026-05-01 14:19 56.95898 15.69208 36223 ft 433 kts 29°
2026-05-01 14:20 57.03616 15.77766 36218 ft 433 kts 29°
2026-05-01 14:21 57.08740 15.83469 36220 ft 433 kts 29°
2026-05-01 14:21 57.13850 15.89177 36211 ft 433 kts 29°
2026-05-01 14:22 57.21540 15.97805 36204 ft 433 kts 29°
2026-05-01 14:22 57.26631 16.03538 36197 ft 433 kts 29°
2026-05-01 14:23 57.31746 16.09317 36192 ft 432 kts 29°
2026-05-01 14:23 57.36863 16.15119 36193 ft 432 kts 28°
2026-05-01 14:24 57.41972 16.20927 36194 ft 433 kts 28°
2026-05-01 14:24 57.47073 16.26750 36192 ft 433 kts 28°
2026-05-01 14:25 57.52184 16.32600 36190 ft 433 kts 28°
2026-05-01 14:25 57.57285 16.38460 36189 ft 433 kts 28°
2026-05-01 14:26 57.64911 16.47303 36186 ft 433 kts 28°
2026-05-01 14:27 57.69999 16.53236 36187 ft 433 kts 28°
2026-05-01 14:27 57.75101 16.59201 36184 ft 433 kts 28°
2026-05-01 14:28 57.82690 16.68113 36180 ft 433 kts 29°
2026-05-01 14:28 57.87774 16.74107 36178 ft 434 kts 29°
2026-05-01 14:29 57.92867 16.80133 36416 ft 434 kts 29°
2026-05-01 14:30 58.00488 16.89185 36186 ft 432 kts 29°
2026-05-01 14:30 58.03028 16.92211 35929 ft 431 kts 29°
2026-05-01 14:30 58.05551 16.95221 35043 ft 437 kts 29°
2026-05-01 14:31 58.10743 17.01430 32901 ft 452 kts 29°
2026-05-01 14:31 58.13395 17.04614 32021 ft 454 kts 29°
2026-05-01 14:31 58.16053 17.07811 31238 ft 454 kts 29°
2026-05-01 14:31 58.18677 17.10975 30495 ft 453 kts 29°
2026-05-01 14:32 58.21333 17.14183 29735 ft 452 kts 29°
2026-05-01 14:32 58.23979 17.17384 28979 ft 452 kts 29°
2026-05-01 14:32 58.26583 17.20538 28265 ft 449 kts 29°
2026-05-01 14:32 58.29210 17.23729 27784 ft 442 kts 28°
2026-05-01 14:33 58.31758 17.26831 27303 ft 435 kts 28°
2026-05-01 14:33 58.34258 17.29876 26817 ft 429 kts 28°
2026-05-01 14:33 58.36757 17.32925 26325 ft 423 kts 28°
2026-05-01 14:33 58.39205 17.35916 25839 ft 418 kts 28°
2026-05-01 14:34 58.41620 17.38872 25357 ft 414 kts 28°
2026-05-01 14:34 58.44028 17.41821 24879 ft 409 kts 28°
2026-05-01 14:34 58.46394 17.44725 24407 ft 404 kts 28°
2026-05-01 14:34 58.48741 17.47611 23928 ft 400 kts 27°
2026-05-01 14:35 58.51030 17.50427 23468 ft 396 kts 27°
2026-05-01 14:35 58.53342 17.53278 22996 ft 393 kts 27°
2026-05-01 14:35 58.55608 17.56077 22525 ft 389 kts 27°
2026-05-01 14:35 58.57870 17.58874 22056 ft 386 kts 27°
2026-05-01 14:36 58.60112 17.61652 21587 ft 383 kts 27°
2026-05-01 14:36 58.62317 17.64388 21135 ft 380 kts 27°
2026-05-01 14:36 58.64513 17.67116 20690 ft 378 kts 28°
2026-05-01 14:36 58.66696 17.69833 20224 ft 376 kts 28°
2026-05-01 14:37 58.68876 17.72553 19745 ft 373 kts 28°
2026-05-01 14:37 58.71049 17.75264 19317 ft 371 kts 28°
2026-05-01 14:37 58.73193 17.77942 18575 ft 376 kts 28°
2026-05-01 14:37 58.75389 17.80686 17631 ft 385 kts 28°
2026-05-01 14:38 58.77644 17.83508 16719 ft 393 kts 28°
2026-05-01 14:38 58.79951 17.86402 16064 ft 392 kts 27°
2026-05-01 14:38 58.82270 17.89048 15542 ft 386 kts 24°
2026-05-01 14:38 58.84617 17.91373 15109 ft 378 kts 21°
2026-05-01 14:39 58.86920 17.93555 15078 ft 366 kts 21°
2026-05-01 14:39 58.89190 17.95682 15073 ft 365 kts 20°
2026-05-01 14:39 58.91455 17.97807 15086 ft 365 kts 20°
2026-05-01 14:39 58.93742 17.99959 15076 ft 364 kts 20°
2026-05-01 14:40 58.96017 18.02109 14936 ft 365 kts 20°
2026-05-01 14:40 58.98286 18.04257 14386 ft 366 kts 21°
2026-05-01 14:40 59.00561 18.06417 13881 ft 365 kts 21°
2026-05-01 14:40 59.02838 18.08586 13374 ft 363 kts 21°
2026-05-01 14:41 59.05085 18.10730 12868 ft 360 kts 21°
2026-05-01 14:41 59.07294 18.12836 12415 ft 357 kts 21°
2026-05-01 14:41 59.09577 18.14562 11911 ft 350 kts 11°
2026-05-01 14:41 59.11933 18.15481 11407 ft 342 kts
2026-05-01 14:42 59.14275 18.15842 10976 ft 337 kts 359°
2026-05-01 14:42 59.16552 18.16092 10719 ft 327 kts 359°
2026-05-01 14:42 59.18773 18.16331 10566 ft 313 kts 359°
2026-05-01 14:42 59.20898 18.16565 10421 ft 301 kts 359°
2026-05-01 14:43 59.22943 18.16794 10262 ft 289 kts 358°
2026-05-01 14:43 59.24895 18.17018 10143 ft 278 kts 358°
2026-05-01 14:43 59.26797 18.17236 9855 ft 274 kts 358°
2026-05-01 14:43 59.28708 18.17451 9453 ft 273 kts 358°
2026-05-01 14:44 59.30564 18.17663 9105 ft 271 kts 358°
2026-05-01 14:44 59.34291 18.18096 8430 ft 267 kts 358°
2026-05-01 14:44 59.36145 18.18316 8094 ft 265 kts 358°
2026-05-01 14:45 59.37973 18.18532 7758 ft 264 kts 358°
2026-05-01 14:45 59.41598 18.18960 7085 ft 261 kts 358°
2026-05-01 14:45 59.43387 18.19171 6760 ft 260 kts 358°
2026-05-01 14:46 59.45185 18.19385 6423 ft 259 kts 358°
2026-05-01 14:46 59.48776 18.19811 5750 ft 257 kts 358°
2026-05-01 14:46 59.50554 18.20023 5419 ft 257 kts 358°
2026-05-01 14:47 59.52324 18.20278 5086 ft 258 kts
2026-05-01 14:47 59.54086 18.20903 4753 ft 260 kts
2026-05-01 14:47 59.55814 18.21866 4428 ft 261 kts 11°
2026-05-01 14:48 59.59255 18.23954 3778 ft 259 kts 12°
2026-05-01 14:48 59.60967 18.24995 3462 ft 257 kts 12°
2026-05-01 14:48 59.64360 18.27043 2838 ft 254 kts 12°
2026-05-01 14:49 59.67633 18.28906 2531 ft 232 kts
2026-05-01 14:49 59.69932 18.26391 2502 ft 176 kts 285°
2026-05-01 14:50 59.69796 18.23496 2437 ft 148 kts 255°
2026-05-01 14:50 59.69040 18.18519 2193 ft 140 kts 256°
2026-05-01 14:51 59.68793 18.16677 2009 ft 140 kts 256°
2026-05-01 14:51 59.68315 18.12981 1639 ft 137 kts 257°
2026-05-01 14:52 59.67853 18.09372 1289 ft 136 kts 256°
2026-05-01 14:52 59.67622 18.07565 1119 ft 135 kts 256°
2026-05-01 14:52 59.67165 18.03979 779 ft 134 kts 255°
2026-05-01 14:53 59.66942 18.02170 592 ft 134 kts 255°
2026-05-01 14:53 59.66714 18.00399 422 ft 133 kts 255°
2026-05-01 14:53 59.66485 17.98644 248 ft 133 kts 254°
2026-05-01 14:53 59.66258 17.96882 145 ft 127 kts 255°
2026-05-01 14:54 59.66072 17.95452 143 ft 83 kts 254°
2026-05-01 14:54 59.65966 17.94619 143 ft 52 kts 255°
2026-05-01 14:54 59.65892 17.94021 143 ft 29 kts 257°
2026-05-01 14:54 59.65825 17.93707 143 ft 23 kts 227°
2026-05-01 14:55 59.65729 17.93509 143 ft 17 kts 227°
2026-05-01 14:55 59.65644 17.93331 143 ft 17 kts 227°
2026-05-01 14:55 59.65595 17.93190 143 ft 10 kts 230°
2026-05-01 14:55 59.65528 17.93129 143 ft 10 kts 215°
2026-05-01 14:56 59.65491 17.93000 143 ft 11 kts 250°
2026-05-01 14:56 59.65463 17.92844 143 ft 14 kts 251°
2026-05-01 14:56 59.65415 17.92663 143 ft 15 kts 234°
2026-05-01 14:56 59.65341 17.92515 143 ft 15 kts 217°
2026-05-01 14:57 59.65250 17.92416 143 ft 15 kts 200°
2026-05-01 14:57 59.65039 17.92325 143 ft 15 kts 192°
2026-05-01 14:57 59.64931 17.92285 143 ft 15 kts 191°
2026-05-01 14:58 59.64823 17.92249 143 ft 13 kts 190°
2026-05-01 14:58 59.64749 17.92221 143 ft 7 kts 191°
2026-05-01 14:58 59.64697 17.92238 143 ft 8 kts 139°
2026-05-01 14:58 59.64670 17.92343 143 ft 9 kts 108°
2026-05-01 14:59 59.64650 17.92470 143 ft 10 kts 107°
2026-05-01 14:59 59.64631 17.92606 143 ft 5 kts 106°
2026-05-01 14:59 59.64639 17.92682 143 ft 6 kts 38°
2026-05-01 14:59 59.64676 17.92719 143 ft 6 kts 22°
2026-05-01 15:00 59.64697 17.92735 143 ft 0 kts 21°